Simultaneous Nadir Overpasses (SNOs) Predictions

Prediction of SNOs between GOES-16 and METOP-C Satellite Orbit:

Table of predicted SNOs for the next 14.0 days since TLE Epoch: 11/5/2023
Index Date Time (GOES-16) GOES-16 Lat,Lon METOP-C Lat,Lon Distance(km) Time Diff (sec)
1 11/06/2023 02:15:14 0.05, -75.20 0.79, -71.92 374.27 80
2 11/07/2023 14:36:47 -0.04, -75.24 0.24, -76.48 141.36 80
3 11/08/2023 14:13:28 -0.04, -75.25 -0.86, -71.49 428.48 80
4 11/10/2023 02:35:11 0.04, -75.24 -0.13, -76.09 96.94 80
5 11/11/2023 02:11:52 0.04, -75.25 0.98, -71.10 473.24 80
6 11/12/2023 14:30:45 -0.04, -75.30 0.04, -75.67 41.52 80
7 11/15/2023 02:29:08 0.03, -75.30 0.05, -75.27 4.19 80
8 11/17/2023 14:30:03 -0.02, -75.37 -0.16, -74.85 59.84 80
9 11/19/2023 02:49:03 0.02, -75.36 -0.90, -79.43 464.23 80
